Time,TemperatureF,DewpointF,PressureIn,WindDirection,WindDirectionDegrees,WindSpeedMPH,WindSpeedGustMPH,Humidity,HourlyPrecipIn,Conditions,Clouds,dailyrainin,SolarRadiationWatts/m^2,SoftwareType,DateUTC
2013-01-26 00:00:00,24.3,20.4,30.08,West,279,16.0,18.0,85,0.00,,,0.00,0,Wunderground v.1.15,2013-01-26 05:00:00,
2013-01-26 00:03:00,24.3,20.4,30.08,WNW,300,16.0,26.0,85,0.00,,,0.00,0,Wunderground v.1.15,2013-01-26 05:03:00,
2013-01-26 00:04:00,24.3,20.4,30.08,WSW,258,15.0,26.0,85,0.00,,,0.00,0,Wunderground v.1.15,2013-01-26 05:04:00,
2013-01-26 00:06:00,24.3,20.2,30.08,NW,304,13.0,26.0,84,0.00,,,0.00,0,Wunderground v.1.15,2013-01-26 05:06:00,
2013-01-26 00:11:00,24.3,20.2,30.08,West,278,16.0,16.0,84,0.00,,,0.00,0,Wunderground v.1.15,2013-01-26 05:11:00,
2013-01-26 00:17:00,24.2,20.1,30.08,WNW,300,16.0,22.0,84,0.00,,,0.00,0,Wunderground v.1.15,2013-01-26 05:17:00,
2013-01-26 00:22:00,24.2,20.1,30.08,West,267,15.0,20.0,84,0.00,,,0.00,0,Wunderground v.1.15,2013-01-26 05:22:00,
2013-01-26 00:28:00,24.2,20.1,30.08,WNW,288,15.0,26.0,84,0.00,,,0.00,0,Wunderground v.1.15,2013-01-26 05:28:00,
2013-01-26 00:33:00,24.2,19.8,30.08,West,267,16.0,23.0,83,0.00,,,0.00,0,Wunderground v.1.15,2013-01-26 05:33:00,
2013-01-26 00:38:00,24.0,19.6,30.08,West,261,15.0,23.0,83,0.00,,,0.00,0,Wunderground v.1.15,2013-01-26 05:38:00,
2013-01-26 00:44:00,24.0,19.6,30.08,WSW,253,15.0,16.0,83,0.00,,,0.00,0,Wunderground v.1.15,2013-01-26 05:44:00,
2013-01-26 00:49:00,24.0,19.6,30.08,WNW,284,14.0,23.0,83,0.00,,,0.00,0,Wunderground v.1.15,2013-01-26 05:49:00,
2013-01-26 00:54:00,24.0,19.6,30.07,NW,305,13.0,21.0,83,0.00,,,0.00,0,Wunderground v.1.15,2013-01-26 05:54:00,
2013-01-26 01:00:00,24.0,19.3,30.07,West,273,15.0,31.0,82,0.00,,,0.00,0,Wunderground v.1.15,2013-01-26 06:00:00,
2013-01-26 01:06:00,24.1,19.4,30.07,NW,305,17.0,31.0,82,0.00,,,0.00,0,Wunderground v.1.15,2013-01-26 06:06:00,
2013-01-26 01:11:00,24.2,19.5,30.07,West,269,18.0,29.0,82,0.00,,,0.00,0,Wunderground v.1.15,2013-01-26 06:11:00,
2013-01-26 01:16:00,24.1,19.4,30.07,WNW,286,18.0,29.0,82,0.00,,,0.00,0,Wunderground v.1.15,2013-01-26 06:16:00,
2013-01-26 01:21:00,24.1,19.4,30.07,WNW,286,17.0,18.0,82,0.00,,,0.00,0,Wunderground v.1.15,2013-01-26 06:21:00,
2013-01-26 01:27:00,24.2,19.5,30.08,WNW,303,19.0,22.0,82,0.00,,,0.00,0,Wunderground v.1.15,2013-01-26 06:27:00,
2013-01-26 01:32:00,24.2,19.2,30.08,West,262,19.0,19.0,81,0.00,,,0.00,0,Wunderground v.1.15,2013-01-26 06:32:00,
2013-01-26 01:38:00,24.2,19.2,30.08,NW,311,18.0,27.0,81,0.00,,,0.00,0,Wunderground v.1.15,2013-01-26 06:38:00,
2013-01-26 01:43:00,24.1,19.1,30.09,NW,307,16.0,28.0,81,0.00,,,0.00,0,Wunderground v.1.15,2013-01-26 06:43:00,
2013-01-26 01:49:00,23.9,18.9,30.09,NW,313,16.0,28.0,81,0.00,,,0.00,0,Wunderground v.1.15,2013-01-26 06:49:00,
2013-01-26 01:54:00,23.7,19.0,30.09,WNW,295,17.0,31.0,82,0.00,,,0.00,0,Wunderground v.1.15,2013-01-26 06:54:00,
2013-01-26 01:59:00,23.5,18.8,30.09,WNW,290,17.0,32.0,82,0.00,,,0.00,0,Wunderground v.1.15,2013-01-26 06:59:00,
2013-01-26 02:05:00,23.4,18.7,30.09,West,275,17.0,23.0,82,0.00,,,0.00,0,Wunderground v.1.15,2013-01-26 07:05:00,
2013-01-26 02:10:00,23.3,18.3,30.09,WNW,284,18.0,18.0,81,0.00,,,0.00,0,Wunderground v.1.15,2013-01-26 07:10:00,
2013-01-26 02:16:00,23.1,18.1,30.10,WNW,288,17.0,29.0,81,0.00,,,0.00,0,Wunderground v.1.15,2013-01-26 07:16:00,
2013-01-26 02:21:00,23.0,18.0,30.09,NW,319,19.0,28.0,81,0.00,,,0.00,0,Wunderground v.1.15,2013-01-26 07:21:00,
2013-01-26 02:26:00,22.8,18.1,30.10,West,281,20.0,28.0,82,0.00,,,0.00,0,Wunderground v.1.15,2013-01-26 07:26:00,
2013-01-26 02:32:00,22.7,18.0,30.11,WNW,298,16.0,21.0,82,0.00,,,0.00,0,Wunderground v.1.15,2013-01-26 07:32:00,
2013-01-26 02:37:00,22.6,17.9,30.11,West,269,16.0,23.0,82,0.00,,,0.00,0,Wunderground v.1.15,2013-01-26 07:37:00,
2013-01-26 02:42:00,22.6,17.9,30.11,NW,310,18.0,22.0,82,0.00,,,0.00,0,Wunderground v.1.15,2013-01-26 07:42:00,
2013-01-26 02:47:00,22.5,17.8,30.11,West,271,19.0,27.0,82,0.00,,,0.00,0,Wunderground v.1.15,2013-01-26 07:47:00,
2013-01-26 02:53:00,22.5,17.8,30.11,WNW,283,17.0,19.0,82,0.00,,,0.00,0,Wunderground v.1.15,2013-01-26 07:53:00,
2013-01-26 02:58:00,22.4,17.7,30.12,West,281,14.0,19.0,82,0.00,,,0.00,0,Wunderground v.1.15,2013-01-26 07:58:00,
2013-01-26 03:04:00,22.3,17.6,30.12,WNW,291,11.0,13.0,82,0.00,,,0.00,0,Wunderground v.1.15,2013-01-26 08:04:00,
2013-01-26 03:09:00,22.4,17.7,30.12,West,262,10.0,20.0,82,0.00,,,0.00,0,Wunderground v.1.15,2013-01-26 08:09:00,
2013-01-26 03:15:00,22.4,18.0,30.12,NW,310,14.0,31.0,83,0.00,,,0.00,0,Wunderground v.1.15,2013-01-26 08:15:00,
2013-01-26 03:20:00,22.4,17.7,30.13,WNW,285,16.0,16.0,82,0.00,,,0.00,0,Wunderground v.1.15,2013-01-26 08:20:00,
2013-01-26 03:25:00,22.4,17.7,30.13,West,272,15.0,24.0,82,0.00,,,0.00,0,Wunderground v.1.15,2013-01-26 08:25:00,
2013-01-26 03:31:00,22.5,17.8,30.13,West,278,14.0,14.0,82,0.00,,,0.00,0,Wunderground v.1.15,2013-01-26 08:31:00,
2013-01-26 03:36:00,22.4,17.7,30.13,WNW,282,10.0,14.0,82,0.00,,,0.00,0,Wunderground v.1.15,2013-01-26 08:36:00,
2013-01-26 03:41:00,22.3,17.6,30.13,West,269,8.0,14.0,82,0.00,,,0.00,0,Wunderground v.1.15,2013-01-26 08:41:00,
2013-01-26 03:47:00,22.3,17.4,30.13,WNW,287,8.0,14.0,81,0.00,,,0.00,0,Wunderground v.1.15,2013-01-26 08:47:00,
2013-01-26 03:52:00,22.2,17.3,30.13,WSW,252,6.0,12.0,81,0.00,,,0.00,0,Wunderground v.1.15,2013-01-26 08:52:00,
2013-01-26 03:57:00,22.2,17.3,30.13,West,269,6.0,12.0,81,0.00,,,0.00,0,Wunderground v.1.15,2013-01-26 08:57:00,
2013-01-26 04:03:00,22.4,17.2,30.13,West,277,8.0,14.0,80,0.00,,,0.00,0,Wunderground v.1.15,2013-01-26 09:03:00,
2013-01-26 04:08:00,22.5,17.3,30.13,West,271,8.0,14.0,80,0.00,,,0.00,0,Wunderground v.1.15,2013-01-26 09:08:00,
2013-01-26 04:14:00,22.5,17.3,30.14,SW,221,7.0,7.0,80,0.00,,,0.00,0,Wunderground v.1.15,2013-01-26 09:14:00,
2013-01-26 04:19:00,22.5,17.3,30.14,NW,307,6.0,9.0,80,0.00,,,0.00,0,Wunderground v.1.15,2013-01-26 09:19:00,
2013-01-26 04:25:00,22.6,17.4,30.14,West,266,6.0,14.0,80,0.00,,,0.00,0,Wunderground v.1.15,2013-01-26 09:25:00,
2013-01-26 04:30:00,22.6,17.4,30.14,WNW,292,7.0,17.0,80,0.00,,,0.00,0,Wunderground v.1.15,2013-01-26 09:30:00,
2013-01-26 04:35:00,22.7,17.5,30.14,WSW,252,9.0,17.0,80,0.00,,,0.00,0,Wunderground v.1.15,2013-01-26 09:35:00,
2013-01-26 04:40:00,22.8,17.6,30.14,SW,217,7.0,7.0,80,0.00,,,0.00,0,Wunderground v.1.15,2013-01-26 09:40:00,
2013-01-26 04:46:00,22.8,17.6,30.14,West,271,3.0,12.0,80,0.00,,,0.00,0,Wunderground v.1.15,2013-01-26 09:46:00,
2013-01-26 04:51:00,22.9,17.7,30.14,WNW,301,6.0,8.0,80,0.00,,,0.00,0,Wunderground v.1.15,2013-01-26 09:51:00,
2013-01-26 04:56:00,23.0,17.7,30.15,West,271,9.0,15.0,80,0.00,,,0.00,0,Wunderground v.1.15,2013-01-26 09:56:00,
2013-01-26 05:02:00,23.1,17.8,30.16,NW,323,11.0,18.0,80,0.00,,,0.00,0,Wunderground v.1.15,2013-01-26 10:02:00,
2013-01-26 05:07:00,23.3,17.7,30.15,WSW,237,9.0,18.0,79,0.00,,,0.00,0,Wunderground v.1.15,2013-01-26 10:07:00,
2013-01-26 05:12:00,23.2,17.7,30.15,West,267,6.0,9.0,79,0.00,,,0.00,0,Wunderground v.1.15,2013-01-26 10:12:00,
2013-01-26 05:17:00,23.2,17.7,30.15,SSW,204,4.0,9.0,79,0.00,,,0.00,0,Wunderground v.1.15,2013-01-26 10:17:00,
2013-01-26 05:22:00,23.2,17.7,30.16,NNE,13,2.0,5.0,79,0.00,,,0.00,0,Wunderground v.1.15,2013-01-26 10:22:00,
2013-01-26 05:28:00,23.2,17.9,30.16,NNW,329,3.0,13.0,80,0.00,,,0.00,0,Wunderground v.1.15,2013-01-26 10:28:00,
2013-01-26 05:33:00,23.3,17.7,30.16,WNW,286,6.0,8.0,79,0.00,,,0.00,0,Wunderground v.1.15,2013-01-26 10:33:00,
2013-01-26 05:38:00,23.5,17.9,30.16,WNW,294,7.0,16.0,79,0.00,,,0.00,0,Wunderground v.1.15,2013-01-26 10:38:00,
2013-01-26 05:44:00,23.5,18.2,30.16,WNW,283,5.0,7.0,80,0.00,,,0.00,0,Wunderground v.1.15,2013-01-26 10:44:00,
2013-01-26 05:49:00,23.5,18.2,30.16,North,360,3.0,9.0,80,0.00,,,0.00,0,Wunderground v.1.15,2013-01-26 10:49:00,
2013-01-26 05:54:00,23.6,18.3,30.17,WNW,298,6.0,10.0,80,0.00,,,0.00,0,Wunderground v.1.15,2013-01-26 10:54:00,
2013-01-26 06:00:00,23.7,18.4,30.17,West,279,8.0,8.0,80,0.00,,,0.00,0,Wunderground v.1.15,2013-01-26 11:00:00,
2013-01-26 06:06:00,23.7,18.4,30.17,NW,313,5.0,10.0,80,0.00,,,0.00,0,Wunderground v.1.15,2013-01-26 11:06:00,
2013-01-26 06:11:00,23.8,18.5,30.17,NW,316,6.0,7.0,80,0.00,,,0.00,0,Wunderground v.1.15,2013-01-26 11:11:00,
2013-01-26 06:16:00,23.9,18.3,30.17,North,360,6.0,12.0,79,0.00,,,0.00,0,Wunderground v.1.15,2013-01-26 11:16:00,
2013-01-26 06:22:00,23.9,18.3,30.17,West,279,5.0,13.0,79,0.00,,,0.00,0,Wunderground v.1.15,2013-01-26 11:22:00,
2013-01-26 06:27:00,23.9,18.3,30.18,North,351,7.0,13.0,79,0.00,,,0.00,0,Wunderground v.1.15,2013-01-26 11:27:00,
2013-01-26 06:32:00,24.0,18.4,30.18,North,360,6.0,7.0,79,0.00,,,0.00,0,Wunderground v.1.15,2013-01-26 11:32:00,
2013-01-26 06:38:00,24.0,18.7,30.18,West,271,5.0,13.0,80,0.00,,,0.00,0,Wunderground v.1.15,2013-01-26 11:38:00,
2013-01-26 06:43:00,24.0,18.4,30.18,WNW,289,7.0,16.0,79,0.00,,,0.00,0,Wunderground v.1.15,2013-01-26 11:43:00,
2013-01-26 06:48:00,24.0,18.7,30.18,NW,310,9.0,16.0,80,0.00,,,0.00,0,Wunderground v.1.15,2013-01-26 11:48:00,
2013-01-26 06:54:00,23.9,18.9,30.19,SW,232,6.0,8.0,81,0.00,,,0.00,0,Wunderground v.1.15,2013-01-26 11:54:00,
2013-01-26 06:59:00,23.9,18.9,30.19,WNW,296,3.0,8.0,81,0.00,,,0.00,0,Wunderground v.1.15,2013-01-26 11:59:00,
2013-01-26 07:05:00,24.0,19.0,30.19,North,355,3.0,4.0,81,0.00,,,0.00,0,Wunderground v.1.15,2013-01-26 12:05:00,
2013-01-26 07:11:00,24.1,19.1,30.19,West,268,2.0,11.0,81,0.00,,,0.00,0,Wunderground v.1.15,2013-01-26 12:11:00,
2013-01-26 07:16:00,24.1,19.1,30.19,WNW,299,3.0,11.0,81,0.00,,,0.00,0,Wunderground v.1.15,2013-01-26 12:16:00,
2013-01-26 07:21:00,24.1,19.4,30.20,NW,311,3.0,11.0,82,0.00,,,0.00,0,Wunderground v.1.15,2013-01-26 12:21:00,
2013-01-26 07:26:00,24.1,18.8,30.20,NW,314,5.0,12.0,80,0.00,,,0.00,0,Wunderground v.1.15,2013-01-26 12:26:00,
2013-01-26 07:32:00,24.2,19.2,30.19,West,270,5.0,7.0,81,0.00,,,0.00,0,Wunderground v.1.15,2013-01-26 12:32:00,
2013-01-26 07:37:00,24.2,19.2,30.20,SW,228,4.0,9.0,81,0.00,,,0.00,0,Wunderground v.1.15,2013-01-26 12:37:00,
2013-01-26 07:43:00,24.2,19.5,30.20,West,265,3.0,3.0,82,0.00,,,0.00,5,Wunderground v.1.15,2013-01-26 12:43:00,
2013-01-26 07:48:00,24.3,19.3,30.20,WNW,286,3.0,9.0,81,0.00,,,0.00,7,Wunderground v.1.15,2013-01-26 12:48:00,
2013-01-26 07:54:00,24.4,19.7,30.21,North,360,3.0,10.0,82,0.00,,,0.00,11,Wunderground v.1.15,2013-01-26 12:54:00,
2013-01-26 07:59:00,24.4,19.7,30.21,SSE,156,4.0,10.0,82,0.00,,,0.00,12,Wunderground v.1.15,2013-01-26 12:59:00,
2013-01-26 08:05:00,24.3,19.6,30.22,North,360,3.0,7.0,82,0.00,,,0.00,16,Wunderground v.1.15,2013-01-26 13:05:00,
2013-01-26 08:11:00,24.4,19.7,30.22,NNE,17,2.0,2.0,82,0.00,,,0.00,21,Wunderground v.1.15,2013-01-26 13:11:00,
2013-01-26 08:16:00,24.4,19.7,30.22,WSW,250,2.0,2.0,82,0.00,,,0.00,23,Wunderground v.1.15,2013-01-26 13:16:00,
2013-01-26 08:21:00,24.6,20.2,30.22,North,360,3.0,5.0,83,0.00,,,0.00,32,Wunderground v.1.15,2013-01-26 13:21:00,
2013-01-26 08:27:00,24.6,20.2,30.22,SW,234,3.0,5.0,83,0.00,,,0.00,40,Wunderground v.1.15,2013-01-26 13:27:00,
2013-01-26 08:32:00,24.7,20.3,30.22,NW,308,2.0,5.0,83,0.00,,,0.00,46,Wunderground v.1.15,2013-01-26 13:32:00,
2013-01-26 08:37:00,24.8,20.7,30.22,WNW,303,3.0,5.0,84,0.00,,,0.00,51,Wunderground v.1.15,2013-01-26 13:37:00,
2013-01-26 08:42:00,24.7,20.8,30.22,NNW,334,4.0,5.0,85,0.00,,,0.00,60,Wunderground v.1.15,2013-01-26 13:42:00,
2013-01-26 08:48:00,24.7,21.1,30.22,NNW,336,2.0,5.0,86,0.00,,,0.00,69,Wunderground v.1.15,2013-01-26 13:48:00,
2013-01-26 08:53:00,24.8,21.2,30.22,NE,52,0.0,2.0,86,0.00,,,0.00,76,Wunderground v.1.15,2013-01-26 13:53:00,
2013-01-26 08:58:00,24.8,21.5,30.22,NE,49,0.0,2.0,87,0.00,,,0.00,86,Wunderground v.1.15,2013-01-26 13:58:00,
2013-01-26 09:04:00,24.8,21.8,30.23,NE,48,0.0,0.0,88,0.00,,,0.00,95,Wunderground v.1.15,2013-01-26 14:04:00,
2013-01-26 09:10:00,24.9,21.8,30.23,NE,47,0.0,2.0,88,0.00,,,0.00,98,Wunderground v.1.15,2013-01-26 14:10:00,
2013-01-26 09:15:00,24.7,21.9,30.23,NE,52,1.0,3.0,89,0.00,,,0.00,107,Wunderground v.1.15,2013-01-26 14:15:00,
2013-01-26 09:20:00,24.7,21.7,30.23,NE,53,1.0,1.0,88,0.00,,,0.00,111,Wunderground v.1.15,2013-01-26 14:20:00,
2013-01-26 09:26:00,24.6,21.8,30.23,NE,51,1.0,2.0,89,0.00,,,0.00,116,Wunderground v.1.15,2013-01-26 14:26:00,
2013-01-26 09:31:00,24.6,22.1,30.23,NE,53,2.0,2.0,90,0.00,,,0.00,113,Wunderground v.1.15,2013-01-26 14:31:00,
2013-01-26 09:36:00,24.7,21.9,30.23,NE,53,2.0,2.0,89,0.00,,,0.00,116,Wunderground v.1.15,2013-01-26 14:36:00,
2013-01-26 09:42:00,24.8,22.0,30.24,NE,52,2.0,2.0,89,0.00,,,0.00,116,Wunderground v.1.15,2013-01-26 14:42:00,
2013-01-26 09:47:00,24.9,22.1,30.24,NE,53,2.0,3.0,89,0.00,,,0.00,128,Wunderground v.1.15,2013-01-26 14:47:00,
2013-01-26 09:53:00,25.0,21.9,30.24,ENE,69,2.0,4.0,88,0.00,,,0.00,132,Wunderground v.1.15,2013-01-26 14:53:00,
2013-01-26 09:58:00,24.9,21.8,30.24,ENE,74,2.0,4.0,88,0.00,,,0.00,141,Wunderground v.1.15,2013-01-26 14:58:00,
2013-01-26 10:04:00,25.0,22.2,30.25,ENE,74,3.0,3.0,89,0.00,,,0.00,156,Wunderground v.1.15,2013-01-26 15:04:00,
2013-01-26 10:09:00,25.2,22.1,30.25,East,80,3.0,5.0,88,0.00,,,0.00,167,Wunderground v.1.15,2013-01-26 15:09:00,
2013-01-26 10:15:00,25.3,22.2,30.25,East,80,3.0,5.0,88,0.00,,,0.00,176,Wunderground v.1.15,2013-01-26 15:15:00,
2013-01-26 10:20:00,25.5,22.4,30.25,East,80,2.0,3.0,88,0.00,,,0.00,188,Wunderground v.1.15,2013-01-26 15:20:00,
2013-01-26 10:25:00,25.8,22.2,30.26,East,80,2.0,3.0,86,0.00,,,0.00,195,Wunderground v.1.15,2013-01-26 15:25:00,
2013-01-26 10:31:00,25.9,22.6,30.26,East,80,2.0,3.0,87,0.00,,,0.00,197,Wunderground v.1.15,2013-01-26 15:31:00,
2013-01-26 10:36:00,25.9,22.8,30.25,East,80,2.0,3.0,88,0.00,,,0.00,207,Wunderground v.1.15,2013-01-26 15:36:00,
2013-01-26 10:41:00,26.0,22.9,30.26,East,79,2.0,2.0,88,0.00,,,0.00,185,Wunderground v.1.15,2013-01-26 15:41:00,
2013-01-26 10:46:00,26.2,22.9,30.26,East,80,2.0,2.0,87,0.00,,,0.00,195,Wunderground v.1.15,2013-01-26 15:46:00,
2013-01-26 10:52:00,26.5,23.2,30.26,SSE,163,2.0,2.0,87,0.00,,,0.00,190,Wunderground v.1.15,2013-01-26 15:52:00,
2013-01-26 10:57:00,26.7,22.8,30.26,ESE,111,2.0,4.0,85,0.00,,,0.00,197,Wunderground v.1.15,2013-01-26 15:57:00,
2013-01-26 11:03:00,26.9,23.3,30.26,NNE,26,1.0,2.0,86,0.00,,,0.00,186,Wunderground v.1.15,2013-01-26 16:03:00,
2013-01-26 11:09:00,27.1,22.6,30.26,NW,322,2.0,7.0,83,0.00,,,0.00,188,Wunderground v.1.15,2013-01-26 16:09:00,
2013-01-26 11:14:00,27.5,22.4,30.26,NNW,333,4.0,7.0,81,0.00,,,0.00,195,Wunderground v.1.15,2013-01-26 16:14:00,
2013-01-26 11:19:00,27.8,22.7,30.26,WSW,245,5.0,7.0,81,0.00,,,0.00,209,Wunderground v.1.15,2013-01-26 16:19:00,
2013-01-26 11:24:00,28.1,23.0,30.25,North,360,4.0,11.0,81,0.00,,,0.00,178,Wunderground v.1.15,2013-01-26 16:24:00,
2013-01-26 11:30:00,28.0,22.6,30.25,West,274,6.0,6.0,80,0.00,,,0.00,214,Wunderground v.1.15,2013-01-26 16:30:00,
2013-01-26 11:35:00,28.3,22.9,30.25,NW,311,5.0,7.0,80,0.00,,,0.00,209,Wunderground v.1.15,2013-01-26 16:35:00,
2013-01-26 11:41:00,28.4,22.7,30.25,North,360,6.0,12.0,79,0.00,,,0.00,213,Wunderground v.1.15,2013-01-26 16:41:00,
2013-01-26 11:46:00,28.3,22.6,30.25,NW,323,8.0,12.0,79,0.00,,,0.00,216,Wunderground v.1.15,2013-01-26 16:46:00,
2013-01-26 11:51:00,28.4,23.3,30.25,WNW,300,6.0,7.0,81,0.00,,,0.00,176,Wunderground v.1.15,2013-01-26 16:51:00,
2013-01-26 11:57:00,28.6,22.9,30.25,NNW,344,4.0,7.0,79,0.00,,,0.00,221,Wunderground v.1.15,2013-01-26 16:57:00,
2013-01-26 12:03:00,28.6,23.2,30.25,West,262,4.0,8.0,80,0.00,,,0.00,193,Wunderground v.1.15,2013-01-26 17:03:00,
2013-01-26 12:08:00,28.8,23.4,30.25,North,360,5.0,8.0,80,0.00,,,0.00,218,Wunderground v.1.15,2013-01-26 17:08:00,
2013-01-26 12:14:00,29.0,23.3,30.24,NW,316,3.0,5.0,79,0.00,,,0.00,200,Wunderground v.1.15,2013-01-26 17:14:00,
2013-01-26 12:19:00,28.8,23.1,30.24,NNE,25,2.0,6.0,79,0.00,,,0.00,271,Wunderground v.1.15,2013-01-26 17:19:00,
2013-01-26 12:25:00,28.7,23.3,30.24,NNE,27,2.0,4.0,80,0.00,,,0.00,209,Wunderground v.1.15,2013-01-26 17:25:00,
2013-01-26 12:30:00,29.0,23.3,30.24,North,5,1.0,1.0,79,0.00,,,0.00,267,Wunderground v.1.15,2013-01-26 17:30:00,
2013-01-26 12:35:00,29.2,23.8,30.24,NNE,14,1.0,3.0,80,0.00,,,0.00,223,Wunderground v.1.15,2013-01-26 17:35:00,
2013-01-26 12:40:00,29.1,24.0,30.24,North,360,2.0,3.0,81,0.00,,,0.00,262,Wunderground v.1.15,2013-01-26 17:40:00,
2013-01-26 12:46:00,29.2,23.5,30.24,West,269,2.0,4.0,79,0.00,,,0.00,220,Wunderground v.1.15,2013-01-26 17:46:00,
2013-01-26 12:51:00,29.4,23.4,30.24,NW,309,1.0,6.0,78,0.00,,,0.00,211,Wunderground v.1.15,2013-01-26 17:51:00,
2013-01-26 12:57:00,29.3,23.3,30.24,WSW,239,3.0,7.0,78,0.00,,,0.00,229,Wunderground v.1.15,2013-01-26 17:57:00,
2013-01-26 13:03:00,29.6,23.6,30.24,SW,234,5.0,7.0,78,0.00,,,0.00,380,Wunderground v.1.15,2013-01-26 18:03:00,
2013-01-26 13:08:00,29.9,23.6,30.24,SW,219,4.0,7.0,77,0.00,,,0.00,267,Wunderground v.1.15,2013-01-26 18:08:00,
2013-01-26 13:13:00,30.0,23.0,30.24,North,360,4.0,8.0,75,0.00,,,0.00,287,Wunderground v.1.15,2013-01-26 18:13:00,
2013-01-26 13:18:00,29.8,23.2,30.24,NW,315,7.0,12.0,76,0.00,,,0.00,279,Wunderground v.1.15,2013-01-26 18:18:00,
2013-01-26 13:24:00,29.6,22.6,30.24,North,360,7.0,9.0,75,0.00,,,0.00,199,Wunderground v.1.15,2013-01-26 18:24:00,
2013-01-26 13:29:00,29.6,23.3,30.24,NNW,331,7.0,11.0,77,0.00,,,0.00,316,Wunderground v.1.15,2013-01-26 18:29:00,
2013-01-26 13:35:00,30.0,23.4,30.25,WNW,292,6.0,11.0,76,0.00,,,0.00,281,Wunderground v.1.15,2013-01-26 18:35:00,
2013-01-26 13:40:00,30.1,23.1,30.25,West,264,7.0,10.0,75,0.00,,,0.00,197,Wunderground v.1.15,2013-01-26 18:40:00,
2013-01-26 13:45:00,30.2,23.5,30.25,NNW,335,9.0,11.0,76,0.00,,,0.00,334,Wunderground v.1.15,2013-01-26 18:45:00,
2013-01-26 13:51:00,30.1,22.8,30.25,West,279,6.0,8.0,74,0.00,,,0.00,271,Wunderground v.1.15,2013-01-26 18:51:00,
2013-01-26 13:56:00,30.3,23.0,30.25,WSW,243,3.0,8.0,74,0.00,,,0.00,232,Wunderground v.1.15,2013-01-26 18:56:00,
2013-01-26 14:02:00,30.4,24.1,30.25,SSW,196,6.0,14.0,77,0.00,,,0.00,227,Wunderground v.1.15,2013-01-26 19:02:00,
2013-01-26 14:07:00,30.4,23.4,30.25,WSW,258,6.0,14.0,75,0.00,,,0.00,178,Wunderground v.1.15,2013-01-26 19:07:00,
2013-01-26 14:13:00,30.4,23.7,30.25,North,360,4.0,5.0,76,0.00,,,0.00,167,Wunderground v.1.15,2013-01-26 19:13:00,
2013-01-26 14:18:00,30.1,23.4,30.25,North,360,4.0,5.0,76,0.00,,,0.00,135,Wunderground v.1.15,2013-01-26 19:18:00,
2013-01-26 14:24:00,29.7,23.4,30.25,WNW,299,3.0,9.0,77,0.00,,,0.00,116,Wunderground v.1.15,2013-01-26 19:24:00,
2013-01-26 14:29:00,29.4,23.1,30.26,WNW,297,2.0,9.0,77,0.00,,,0.00,127,Wunderground v.1.15,2013-01-26 19:29:00,
2013-01-26 14:34:00,29.2,23.2,30.26,WNW,298,2.0,2.0,78,0.00,,,0.00,135,Wunderground v.1.15,2013-01-26 19:34:00,
2013-01-26 14:40:00,29.0,23.6,30.26,SSW,208,2.0,2.0,80,0.00,,,0.00,130,Wunderground v.1.15,2013-01-26 19:40:00,
2013-01-26 14:45:00,29.0,23.3,30.26,ENE,59,3.0,4.0,79,0.00,,,0.00,153,Wunderground v.1.15,2013-01-26 19:45:00,
2013-01-26 14:51:00,29.0,23.6,30.26,SW,223,2.0,3.0,80,0.00,,,0.00,178,Wunderground v.1.15,2013-01-26 19:51:00,
2013-01-26 14:56:00,29.1,23.7,30.26,SSW,205,2.0,4.0,80,0.00,,,0.00,141,Wunderground v.1.15,2013-01-26 19:56:00,
2013-01-26 15:02:00,29.1,23.7,30.26,ESE,120,3.0,5.0,80,0.00,,,0.00,88,Wunderground v.1.15,2013-01-26 20:02:00,
2013-01-26 15:07:00,29.0,23.9,30.27,SSE,148,3.0,5.0,81,0.00,,,0.00,104,Wunderground v.1.15,2013-01-26 20:07:00,
2013-01-26 15:13:00,29.0,23.6,30.27,ESE,117,2.0,7.0,80,0.00,,,0.00,146,Wunderground v.1.15,2013-01-26 20:13:00,
2013-01-26 15:18:00,29.0,22.7,30.27,East,90,3.0,7.0,77,0.00,,,0.00,248,Wunderground v.1.15,2013-01-26 20:18:00,
2013-01-26 15:23:00,29.3,23.3,30.27,SE,138,3.0,3.0,78,0.00,,,0.00,107,Wunderground v.1.15,2013-01-26 20:23:00,
2013-01-26 15:29:00,29.5,23.2,30.28,WSW,252,2.0,4.0,77,0.00,,,0.00,97,Wunderground v.1.15,2013-01-26 20:29:00,
2013-01-26 15:34:00,29.5,22.6,30.28,WNW,294,4.0,11.0,75,0.00,,,0.00,65,Wunderground v.1.15,2013-01-26 20:34:00,
2013-01-26 15:40:00,29.4,22.8,30.28,West,269,3.0,3.0,76,0.00,,,0.00,51,Wunderground v.1.15,2013-01-26 20:40:00,
2013-01-26 15:45:00,29.3,22.7,30.29,North,360,0.0,5.0,76,0.00,,,0.00,44,Wunderground v.1.15,2013-01-26 20:45:00,
2013-01-26 15:50:00,29.2,22.6,30.29,NW,315,3.0,3.0,76,0.00,,,0.00,51,Wunderground v.1.15,2013-01-26 20:50:00,
2013-01-26 15:56:00,29.0,23.3,30.29,NW,318,4.0,4.0,79,0.00,,,0.00,83,Wunderground v.1.15,2013-01-26 20:56:00,
2013-01-26 16:02:00,28.9,23.2,30.29,South,190,2.0,3.0,79,0.00,,,0.00,72,Wunderground v.1.15,2013-01-26 21:02:00,
2013-01-26 16:07:00,28.9,23.5,30.29,NE,40,2.0,4.0,80,0.00,,,0.00,63,Wunderground v.1.15,2013-01-26 21:07:00,
2013-01-26 16:12:00,28.9,22.9,30.29,North,360,3.0,10.0,78,0.00,,,0.00,74,Wunderground v.1.15,2013-01-26 21:12:00,
2013-01-26 16:18:00,28.7,22.1,30.30,NW,321,5.0,16.0,76,0.00,,,0.00,63,Wunderground v.1.15,2013-01-26 21:18:00,
2013-01-26 16:23:00,28.7,22.7,30.30,North,360,5.0,5.0,78,0.00,,,0.00,83,Wunderground v.1.15,2013-01-26 21:23:00,
2013-01-26 16:28:00,28.6,22.0,30.30,West,265,4.0,10.0,76,0.00,,,0.00,60,Wunderground v.1.15,2013-01-26 21:28:00,
2013-01-26 16:34:00,28.5,21.6,30.30,NW,323,7.0,10.0,75,0.00,,,0.00,63,Wunderground v.1.15,2013-01-26 21:34:00,
2013-01-26 16:39:00,28.4,21.8,30.30,South,190,5.0,10.0,76,0.00,,,0.00,54,Wunderground v.1.15,2013-01-26 21:39:00,
2013-01-26 16:44:00,28.4,21.5,30.30,NW,317,5.0,10.0,75,0.00,,,0.00,37,Wunderground v.1.15,2013-01-26 21:44:00,
2013-01-26 16:50:00,28.3,21.7,30.31,NW,325,4.0,5.0,76,0.00,,,0.00,25,Wunderground v.1.15,2013-01-26 21:50:00,
2013-01-26 16:55:00,28.2,22.2,30.31,WSW,252,2.0,5.0,78,0.00,,,0.00,33,Wunderground v.1.15,2013-01-26 21:55:00,
2013-01-26 17:00:00,28.1,22.4,30.31,North,360,2.0,2.0,79,0.00,,,0.00,16,Wunderground v.1.15,2013-01-26 22:00:00,
2013-01-26 17:06:00,27.9,21.9,30.32,SW,232,4.0,7.0,78,0.00,,,0.00,11,Wunderground v.1.15,2013-01-26 22:06:00,
2013-01-26 17:12:00,27.8,22.4,30.32,West,274,6.0,6.0,80,0.00,,,0.00,19,Wunderground v.1.15,2013-01-26 22:12:00,
2013-01-26 17:17:00,27.6,21.9,30.32,ENE,63,4.0,6.0,79,0.00,,,0.00,12,Wunderground v.1.15,2013-01-26 22:17:00,
2013-01-26 17:23:00,27.2,21.5,30.32,NW,304,3.0,4.0,79,0.00,,,0.00,9,Wunderground v.1.15,2013-01-26 22:23:00,
2013-01-26 17:28:00,27.1,21.2,30.32,WSW,252,2.0,4.0,78,0.00,,,0.00,5,Wunderground v.1.15,2013-01-26 22:28:00,
2013-01-26 17:33:00,27.0,21.4,30.32,SSW,202,2.0,8.0,79,0.00,,,0.00,0,Wunderground v.1.15,2013-01-26 22:33:00,
2013-01-26 17:38:00,27.0,21.1,30.33,NE,54,2.0,8.0,78,0.00,,,0.00,0,Wunderground v.1.15,2013-01-26 22:38:00,
2013-01-26 17:44:00,27.0,21.4,30.33,ENE,78,2.0,5.0,79,0.00,,,0.00,0,Wunderground v.1.15,2013-01-26 22:44:00,
2013-01-26 17:49:00,27.1,21.2,30.33,NE,53,3.0,5.0,78,0.00,,,0.00,0,Wunderground v.1.15,2013-01-26 22:49:00,
2013-01-26 17:55:00,27.0,21.1,30.33,WSW,238,3.0,9.0,78,0.00,,,0.00,0,Wunderground v.1.15,2013-01-26 22:55:00,
2013-01-26 18:00:00,27.0,21.1,30.33,West,259,5.0,5.0,78,0.00,,,0.00,0,Wunderground v.1.15,2013-01-26 23:00:00,
2013-01-26 18:06:00,27.0,21.4,30.34,NNE,21,4.0,5.0,79,0.00,,,0.00,0,Wunderground v.1.15,2013-01-26 23:06:00,
2013-01-26 18:11:00,27.0,21.4,30.34,NE,52,4.0,4.0,79,0.00,,,0.00,0,Wunderground v.1.15,2013-01-26 23:11:00,
2013-01-26 18:16:00,26.9,21.3,30.34,NE,53,4.0,4.0,79,0.00,,,0.00,0,Wunderground v.1.15,2013-01-26 23:16:00,
2013-01-26 18:22:00,27.0,21.7,30.35,East,88,2.0,2.0,80,0.00,,,0.00,0,Wunderground v.1.15,2013-01-26 23:22:00,
2013-01-26 18:27:00,27.0,21.1,30.35,WSW,238,2.0,7.0,78,0.00,,,0.00,0,Wunderground v.1.15,2013-01-26 23:27:00,
2013-01-26 18:33:00,27.1,21.2,30.35,NW,315,4.0,9.0,78,0.00,,,0.00,0,Wunderground v.1.15,2013-01-26 23:33:00,
2013-01-26 18:38:00,27.1,21.2,30.35,NNE,13,6.0,13.0,78,0.00,,,0.00,0,Wunderground v.1.15,2013-01-26 23:38:00,
2013-01-26 18:43:00,27.0,21.1,30.35,WNW,292,7.0,7.0,78,0.00,,,0.00,0,Wunderground v.1.15,2013-01-26 23:43:00,
2013-01-26 18:49:00,27.0,21.1,30.36,WSW,246,6.0,11.0,78,0.00,,,0.00,0,Wunderground v.1.15,2013-01-26 23:49:00,
2013-01-26 18:54:00,27.0,21.1,30.36,WSW,244,4.0,5.0,78,0.00,,,0.00,0,Wunderground v.1.15,2013-01-26 23:54:00,
2013-01-26 19:00:00,27.0,21.1,30.36,SW,236,1.0,1.0,78,0.00,,,0.00,0,Wunderground v.1.15,2013-01-27 00:00:00,
2013-01-26 19:06:00,27.1,21.2,30.36,ESE,123,1.0,4.0,78,0.00,,,0.00,0,Wunderground v.1.15,2013-01-27 00:06:00,
2013-01-26 19:11:00,27.0,20.7,30.37,ESE,119,2.0,2.0,77,0.00,,,0.00,0,Wunderground v.1.15,2013-01-27 00:11:00,
2013-01-26 19:16:00,27.0,21.1,30.37,ESE,123,1.0,2.0,78,0.00,,,0.00,0,Wunderground v.1.15,2013-01-27 00:16:00,
2013-01-26 19:22:00,27.0,20.7,30.37,NE,51,2.0,4.0,77,0.00,,,0.00,0,Wunderground v.1.15,2013-01-27 00:22:00,
2013-01-26 19:27:00,26.9,20.7,30.38,West,266,3.0,5.0,77,0.00,,,0.00,0,Wunderground v.1.15,2013-01-27 00:27:00,
2013-01-26 19:32:00,26.8,20.9,30.38,West,265,3.0,3.0,78,0.00,,,0.00,0,Wunderground v.1.15,2013-01-27 00:32:00,
2013-01-26 19:38:00,26.8,21.2,30.38,SSW,192,1.0,3.0,79,0.00,,,0.00,0,Wunderground v.1.15,2013-01-27 00:38:00,
2013-01-26 19:43:00,26.7,21.1,30.38,ESE,109,1.0,5.0,79,0.00,,,0.00,0,Wunderground v.1.15,2013-01-27 00:43:00,
2013-01-26 19:48:00,26.5,20.9,30.38,East,95,3.0,5.0,79,0.00,,,0.00,0,Wunderground v.1.15,2013-01-27 00:48:00,
2013-01-26 19:54:00,26.3,20.7,30.38,East,80,4.0,7.0,79,0.00,,,0.00,0,Wunderground v.1.15,2013-01-27 00:54:00,
2013-01-26 19:59:00,26.3,20.7,30.39,North,360,4.0,7.0,79,0.00,,,0.00,0,Wunderground v.1.15,2013-01-27 00:59:00,
2013-01-26 20:05:00,26.3,20.7,30.39,NE,48,4.0,5.0,79,0.00,,,0.00,0,Wunderground v.1.15,2013-01-27 01:05:00,
2013-01-26 20:10:00,26.3,20.4,30.39,NNE,32,2.0,2.0,78,0.00,,,0.00,0,Wunderground v.1.15,2013-01-27 01:10:00,
2013-01-26 20:16:00,26.3,20.7,30.39,North,351,2.0,8.0,79,0.00,,,0.00,0,Wunderground v.1.15,2013-01-27 01:16:00,
2013-01-26 20:21:00,26.3,20.4,30.39,North,351,5.0,6.0,78,0.00,,,0.00,0,Wunderground v.1.15,2013-01-27 01:21:00,
2013-01-26 20:26:00,26.2,20.3,30.40,NNW,337,8.0,13.0,78,0.00,,,0.00,0,Wunderground v.1.15,2013-01-27 01:26:00,
2013-01-26 20:32:00,25.9,20.3,30.40,NW,320,7.0,7.0,79,0.00,,,0.00,0,Wunderground v.1.15,2013-01-27 01:32:00,
2013-01-26 20:37:00,25.9,20.0,30.41,NNE,14,5.0,7.0,78,0.00,,,0.00,0,Wunderground v.1.15,2013-01-27 01:37:00,
2013-01-26 20:43:00,25.8,19.9,30.41,NNE,30,3.0,7.0,78,0.00,,,0.00,0,Wunderground v.1.15,2013-01-27 01:43:00,
2013-01-26 20:48:00,25.6,19.7,30.42,NNE,15,4.0,7.0,78,0.00,,,0.00,0,Wunderground v.1.15,2013-01-27 01:48:00,
2013-01-26 20:53:00,25.6,20.0,30.42,ENE,78,3.0,4.0,79,0.00,,,0.00,0,Wunderground v.1.15,2013-01-27 01:53:00,
2013-01-26 20:58:00,25.4,19.5,30.42,NNW,333,2.0,10.0,78,0.00,,,0.00,0,Wunderground v.1.15,2013-01-27 01:58:00,
2013-01-26 21:04:00,25.3,19.1,30.42,NNW,338,4.0,9.0,77,0.00,,,0.00,0,Wunderground v.1.15,2013-01-27 02:04:00,
2013-01-26 21:10:00,25.3,18.8,30.43,NNW,327,4.0,10.0,76,0.00,,,0.00,0,Wunderground v.1.15,2013-01-27 02:10:00,
2013-01-26 21:15:00,25.3,18.5,30.43,NNW,338,4.0,10.0,75,0.00,,,0.00,0,Wunderground v.1.15,2013-01-27 02:15:00,
2013-01-26 21:20:00,25.2,18.4,30.43,North,5,4.0,7.0,75,0.00,,,0.00,0,Wunderground v.1.15,2013-01-27 02:20:00,
2013-01-26 21:26:00,25.1,18.0,30.43,NE,36,3.0,7.0,74,0.00,,,0.00,0,Wunderground v.1.15,2013-01-27 02:26:00,
2013-01-26 21:31:00,25.1,18.3,30.43,North,5,2.0,3.0,75,0.00,,,0.00,0,Wunderground v.1.15,2013-01-27 02:31:00,
2013-01-26 21:36:00,25.1,18.3,30.43,NNW,348,1.0,5.0,75,0.00,,,0.00,0,Wunderground v.1.15,2013-01-27 02:36:00,
2013-01-26 21:42:00,24.9,17.8,30.43,NE,44,3.0,9.0,74,0.00,,,0.00,0,Wunderground v.1.15,2013-01-27 02:42:00,
2013-01-26 21:47:00,24.8,17.7,30.43,NNE,22,5.0,9.0,74,0.00,,,0.00,0,Wunderground v.1.15,2013-01-27 02:47:00,
2013-01-26 21:53:00,24.7,17.6,30.44,NNE,20,5.0,6.0,74,0.00,,,0.00,0,Wunderground v.1.15,2013-01-27 02:53:00,
2013-01-26 21:58:00,24.6,17.5,30.44,NE,55,3.0,6.0,74,0.00,,,0.00,0,Wunderground v.1.15,2013-01-27 02:58:00,
2013-01-26 22:03:00,24.6,17.5,30.45,NE,36,4.0,6.0,74,0.00,,,0.00,0,Wunderground v.1.15,2013-01-27 03:03:00,
2013-01-26 22:09:00,24.6,17.5,30.45,NE,34,4.0,6.0,74,0.00,,,0.00,0,Wunderground v.1.15,2013-01-27 03:09:00,
2013-01-26 22:14:00,24.5,16.8,30.45,North,355,4.0,14.0,72,0.00,,,0.00,0,Wunderground v.1.15,2013-01-27 03:14:00,
2013-01-26 22:19:00,24.5,16.8,30.45,North,350,4.0,14.0,72,0.00,,,0.00,0,Wunderground v.1.15,2013-01-27 03:19:00,
2013-01-26 22:25:00,24.5,17.1,30.45,NNW,328,3.0,5.0,73,0.00,,,0.00,0,Wunderground v.1.15,2013-01-27 03:25:00,
2013-01-26 22:30:00,24.6,16.9,30.45,North,355,2.0,3.0,72,0.00,,,0.00,0,Wunderground v.1.15,2013-01-27 03:30:00,
2013-01-26 22:35:00,24.5,17.1,30.45,SW,233,2.0,4.0,73,0.00,,,0.00,0,Wunderground v.1.15,2013-01-27 03:35:00,
2013-01-26 22:41:00,24.4,16.7,30.46,West,279,2.0,2.0,72,0.00,,,0.00,0,Wunderground v.1.15,2013-01-27 03:41:00,
2013-01-26 22:46:00,24.4,16.0,30.47,North,9,2.0,8.0,70,0.00,,,0.00,0,Wunderground v.1.15,2013-01-27 03:46:00,
2013-01-26 22:52:00,24.3,15.6,30.47,SSW,211,4.0,4.0,69,0.00,,,0.00,0,Wunderground v.1.15,2013-01-27 03:52:00,
2013-01-26 22:57:00,24.3,15.3,30.47,NE,36,3.0,4.0,68,0.00,,,0.00,0,Wunderground v.1.15,2013-01-27 03:57:00,
2013-01-26 23:03:00,24.2,14.8,30.47,NW,304,2.0,3.0,67,0.00,,,0.00,0,Wunderground v.1.15,2013-01-27 04:03:00,
2013-01-26 23:08:00,24.2,14.8,30.47,SSW,202,2.0,3.0,67,0.00,,,0.00,0,Wunderground v.1.15,2013-01-27 04:08:00,
2013-01-26 23:14:00,24.1,15.1,30.47,ESE,109,2.0,3.0,68,0.00,,,0.00,0,Wunderground v.1.15,2013-01-27 04:14:00,
2013-01-26 23:19:00,24.1,14.4,30.48,ENE,64,3.0,8.0,66,0.00,,,0.00,0,Wunderground v.1.15,2013-01-27 04:19:00,
2013-01-26 23:24:00,24.1,14.7,30.48,NW,315,3.0,5.0,67,0.00,,,0.00,0,Wunderground v.1.15,2013-01-27 04:24:00,
2013-01-26 23:30:00,23.9,14.5,30.48,WSW,240,4.0,4.0,67,0.00,,,0.00,0,Wunderground v.1.15,2013-01-27 04:30:00,
2013-01-26 23:35:00,23.8,14.4,30.48,SW,232,5.0,9.0,67,0.00,,,0.00,0,Wunderground v.1.15,2013-01-27 04:35:00,
2013-01-26 23:40:00,23.8,14.8,30.48,NW,323,7.0,7.0,68,0.00,,,0.00,0,Wunderground v.1.15,2013-01-27 04:40:00,
2013-01-26 23:45:00,23.7,14.7,30.49,North,360,7.0,13.0,68,0.00,,,0.00,0,Wunderground v.1.15,2013-01-27 04:45:00,
2013-01-26 23:51:00,23.7,14.3,30.49,NW,325,4.0,5.0,67,0.00,,,0.00,0,Wunderground v.1.15,2013-01-27 04:51:00,
2013-01-26 23:56:00,23.7,14.3,30.49,WNW,294,2.0,5.0,67,0.00,,,0.00,0,Wunderground v.1.15,2013-01-27 04:56:00,